Other Public Products
Issued by NWS Grand Forks, ND

Home | Current Version | Previous Version | Graphics & Text | Print | Product List | Glossary On
Versions: 1 2 3 4 5 6 7 8 9 10 11 12 13 14 15 16 17 18 19 20 21 22 23 24 25 26 27 28 29 30 31 32 33 34 35 36 37 38 39 40 41 42 43 44 45 46 47 48 49 50
000
FPUS83 KFGF 222331
OPUFGF
PRAIRIE TO PINES WEATHER ROUNDUP
NATIONAL WEATHER SERVICE EASTERN NORTH DAKOTA/GRAND FORKS ND
600 PM CDT MON SEP 22 2014

 **SATELLITE DATA USED TO AUGMENT SKY COVER AT AUTOMATED STATIONS**
 *****  WEATHER ACROSS EASTERN NORTH DAKOTA  *****

CITY           SKY/WX    TMP DP  RH WIND       PRES   REMARKS
GRAND FORKS    SUNNY     76  47  35 S9        30.02S
GRAND FORKS AF SUNNY     76  44  32 SW12      30.02F
GRAND CITY NWS   N/A     73 N/A N/A S5          N/A
BUXTON           N/A     75  45  34 S6G17       N/A
DEVILS LAKE    SUNNY     75  45  33 S12       29.98S
FARGO          SUNNY     76  46  34 S10       30.05F
WAHPETON ARPT  CLEAR     73  41  31 S12       30.07F
$$

 *****  WEATHER ACROSS CENTRAL AND WESTERN NORTH DAKOTA  *****

CITY           SKY/WX    TMP DP  RH WIND       PRES   REMARKS
JAMESTOWN      SUNNY     73  48  41 S9        30.02F
BISMARCK       SUNNY     79  48  33 SE16      29.95F
MINOT          SUNNY     80  45  28 SE12      29.92F
MINOT AFB      SUNNY     79  48  32 SE15      29.91F
GARRISON         N/A     78  50  37 SE13      29.92F
WILLISTON      SUNNY     82  48  30 SE13      29.87F
DICKINSON      MOSUNNY   74  50  42 S18       29.91F
HETTINGER      MOSUNNY   77  48  35 SE15G24   29.92F
$$

 *****  OTHER OBSERVATIONS NORTHEAST NORTH DAKOTA  *****

CITY           SKY/WX    TMP DP  RH WIND       PRES   REMARKS
WALHALLA         N/A     75  46  35 S5        29.99S
LANGDON        FAIR      73  41  31 S12       30.00F
CAVALIER       FAIR      75  48  38 S7        29.99S
GRAFTON        FAIR      73  48  40 S9        30.00F
CANDO          FAIR      75  45  33 S10       29.99S
FORT TOTTEN      N/A     78  40  25 S9        29.95S
ROLLA          FAIR      75  41  29 S9        29.99F
RUGBY          FAIR      77  46  33 S10G17    29.96S
 ***** THE ABOVE OBSERVATIONS ARE NON NWS ARE NOT QUALITY
        CONTROLLED AND MAY MIS-REPORT RAIN FOR SNOW...
$$

 *****  OTHER OBSERVATIONS SOUTHEAST NORTH DAKOTA *****

CITY           SKY/WX    TMP DP  RH WIND       PRES   REMARKS
COOPERSTOWN    NOT AVBL
VALLEY CITY    FAIR      72  48  43 S9        30.04F
OAKES            N/A     75  46  35 S12       30.05S
GWINNER        CLEAR     73  48  40 SE12      30.06F
SHEYENNE NWR     N/A     76  47  35 S9        29.95S
BUFFALO          N/A     74  38  27 S12         N/A
WYNDMERE         N/A     75  45  33 S8          N/A
 ***** THE ABOVE OBSERVATIONS ARE NON NWS ARE NOT QUALITY
       CONTROLLED AND MAY MIS-REPORT RAIN FOR SNOW...
$$

  *****  WEATHER ACROSS NORTHERN MINNESOTA  *****

CITY           SKY/WX    TMP DP  RH WIND       PRES   REMARKS
FLAG ISLAND    SUNNY     72  46  40 SW10      30.01F
WARROAD        SUNNY     72  54  53 SW3       30.04S
ROSEAU         SUNNY     73  54  49 SW7       30.04S
HALLOCK        SUNNY     75  43  31 S8        30.00S
THF RVR FALLS  SUNNY     72  46  40 S8        30.06S
HALSTAD          N/A     73  41  31 S9          N/A
FOSSTON        SUNNY     72  46  40 S9        30.08F
BAUDETTE       SUNNY     72  48  42 SW8       30.04F
WASKISH        SUNNY     68  52  56 CALM      30.07F
CROOKSTON      SUNNY     73  48  40 S12       30.05S
$$
  *****  WEATHER ACROSS CENTRAL AND WEST MINNESOTA  *****

CITY           SKY/WX    TMP DP  RH WIND       PRES   REMARKS
BEMIDJI        SUNNY     70  48  45 SW3       30.09S
PARK RAPIDS    SUNNY     70  48  45 SW8       30.11F
WADENA         SUNNY     70  50  49 S7        30.12S
DETROIT LAKES  SUNNY     70  50  49 S8        30.11S
MOORHEAD       SUNNY     75  39  27 S8        30.06F
FERGUS FALLS   SUNNY     72  45  37 S10       30.09S
ELBOW LAKE     FAIR      69  50  50 S8        30.10F
MORRIS MN      SUNNY     72  50  46 S7        30.10F
STAPLES        SUNNY     68  48  49 S5        30.12F
WHEATON        SUNNY     70  48  46 SE8       30.09F
$$
  *****  WEATHER ELSEWHERE ACROSS MINNESOTA  *****

CITY           SKY/WX    TMP DP  RH WIND       PRES   REMARKS
DULUTH         MOSUNNY   69  49  48 W12       30.11S
INTRNTL FALLS  SUNNY     70  51  51 SW9       30.05S
ELY            SUNNY     66  46  48 W6        30.07F
CLOQUET        SUNNY     68  48  49 SW5       30.12S
BRAINERD       SUNNY     69  49  48 W9        30.13F
HIBBING        SUNNY     70  50  49 W7        30.10S
ALEXANDRIA     SUNNY     70  48  45 S8        30.14F
SAINT CLOUD    SUNNY     73  48  41 S10       30.14F
MINNEAPOLIS    SUNNY     70  48  45 S8        30.16F
$$

  *****  WEATHER ACROSS SOUTH DAKOTA  *****

CITY           SKY/WX    TMP DP  RH WIND       PRES   REMARKS
SIOUX FALLS    PTSUNNY   72  47  40 S12       30.14F
BROOKINGS      NOT AVBL
WATERTOWN      MOSUNNY   72  46  39 S10       30.10F
HURON          MOSUNNY   75  47  36 SE12G23   30.06F
SISSETON         N/A     74  45  35 S10       30.07F
ABERDEEN       MOSUNNY   76  47  35 S16G24    30.04F
MITCHELL       MOSUNNY   74  50  42 SE12      30.09F
PIERRE         MOSUNNY   76  47  35 S22G31    29.97S
MOBRIDGE       MOSUNNY   80  51  36 SE18G26   29.94F
RAPID CITY     CLOUDY    72  50  45 S15       29.92F
$$

  *****  SOME WEATHER IN NEARBY STATES *****

CITY           SKY/WX    TMP DP  RH WIND       PRES   REMARKS
GLASGOW MT     SUNNY     81  47  30 S10       29.83F
GREAT FALLS MT MOSUNNY   83  46  27 SW14      29.88S
CHEYENNE WY    PTSUNNY   71  44  37 S3        30.14F
SCOTTSBLUFF NE PTSUNNY   71  59  65 S8        30.06R
OMAHA NE       PTSUNNY   73  50  44 S10       30.19F
DES MOINES IA  MOSUNNY   72  50  45 SW7       30.21F
DAVENPORT IA   SUNNY     67  47  48 S6        30.24S
CHICAGO IL     CLEAR     67  42  40 W3        30.21F
EAU CLAIRE WI  SUNNY     68  50  52 W6        30.17F
LA CROSSE WI   LGT RAIN  71  51  49 CALM      30.18F
$$

  *****  SOME NATIONAL WEATHER *****

CITY           SKY/WX    TMP DP  RH WIND       PRES   REMARKS
LA GUARDIA NY  MOCLDY    63  43  48 NW15      30.02R
RALEIGH NC     MOCLDY    67  57  70 CALM      30.09R
ATLANTA GA     PTCLDY    75  51  43 N14       30.05R
NEW ORLEANS LA MOSUNNY   86  68  54 NE16      29.97R
OKLAHOMA CITY  MOSUNNY   79  47  32 E8        30.17F
ALBUQUERQUE NM CLOUDY    78  53  41 S3        30.18F THUNDER
SALT LAKE CITY PTSUNNY   75  51  43 NW3       30.10F
LOS ANGELES CA MOSUNNY   72  63  73 W13       29.93F
BOISE ID       SUNNY     81  51  35 CALM      29.99F
SEATTLE WA     PTSUNNY   70  54  56 VRB5      29.98S
$$

*** WEATHER ACROSS MANITOBA...SASKATCHEWAN AND ONTARIO ***
                ***ONTARIO***

CITY           SKY/WX    TMP DP  RH WIND       PRES   REMARKS
GERALDTON      PTCLDY    68  52  56 W7        29.89S
THUNDER BAY    PTCLDY    72  50  46 W10       29.98
SIOUX LOOKOUT  PTCLDY    72  50  46 W10       29.97R
TORONTO        PTCLDY    54  39  58 W13       30.14R
BIG TROUT LK   HAZE      55  48  76 NE9       29.95R VSB 0
PICKLE LAKE    MOCLDY    70  50  49 NW6       29.89R
DRYDEN         SUNNY     70  48  46 W13       30.00R
KENORA         MOSUNNY   72  48  43 SW8       30.03R
$$
                *** MANITOBA***

CITY           SKY/WX    TMP DP  RH WIND       PRES   REMARKS
BRANDON        SUNNY     79  41  25 S9        29.95F
DAUPHIN        SUNNY     79  41  25 S8        29.90F
ISLAND LAKE    MOSUNNY   70  52  52 CALM      29.92
PILOT MOUND      N/A     75  39  27 S12         N/A
THE PAS        SUNNY     81  45  28 S7        29.81F
THOMPSON       MOSUNNY   57  50  77 E13       29.93S
WINNIPEG       MOSUNNY   77  48  36 SW5       29.97F
LYNN LAKE      SUNNY     68  50  52 E12G22    29.80F
CHURCHILL      MOCLDY    41  34  75 E12       30.10S
GILLAM         PTCLDY    52  41  66 E10       30.01S
$$
                ***SASKATCHEWAN***

CITY           SKY/WX    TMP DP  RH WIND       PRES   REMARKS
ESTEVAN        SUNNY     79  48  34 SE8       29.90F
KINDERSLEY     MOSUNNY   84  50  30 S8        29.75F
LLOYDMINSTER   MOSUNNY   81  48  32 W6        29.72F
PRINCE ALBERT  SUNNY     81  50  34 S9        29.75F
REGINA         SUNNY     79  50  36 S10G18    29.84F



USA.gov is the U.S. government's official web portal to all federal, state and local government web resources and services.